{"data":{"norad_id":66632,"epoch":"2026-05-25T03:23:53.281824Z","epoch_age_seconds":52874,"freshness":"FRESH","line1":"1 66632U 25271R   26145.14158891  .00017569  00000+0  52977-3 0  9995","line2":"2 66632  53.1587 143.2782 0001042  46.6937 313.4152 15.34407540 29242","mean_motion":15.3440754,"eccentricity":0.0001042,"inclination_deg":53.1587,"raan_deg":143.2782,"arg_perigee_deg":46.6937,"mean_anomaly_deg":313.4152,"bstar":0.00052977,"rev_number":2924,"period_min":93.847296918262,"perigee_km":461.96801661202,"apogee_km":463.39364304776,"semimajor_km":6840.8178298299,"source":"CELESTRAK","updated_at":"2026-05-25T13:38:21.297145Z"}}